QPF
0.00 0.00 0.00 0.00 0.00 0.00 0.00 0.00 0.00 0.00 0.00 0.00 0.00 0.00 0.00 0.00 0.00 0.00 0.00 0.00 0.00 0.00 0.00 0.00 0.00 0.00 0.00 0.00 0.00 0.00 0.00 0.00 0.00 0.00 0.00 0.00 0.00 0.00
0.00 0.00 0.00 0.00 0.00 0.00 0.00 0.00 0.00 0.00 0.00 0.00 0.00 0.00 0.00 0.00 0.00 0.00 0.00 0.00 0.00 0.00 0.00 0.00 0.00 0.00 0.00 0.00 0.00 0.00 0.00 0.00 0.00 0.00 0.00 0.00 0.00 0.00
0.00 0.00 0.00 0.00 0.00 0.00 0.00 0.00 0.00 0.00 0.00 0.00 0.00 0.00 0.00 0.00 0.00 0.00 0.00 0.00 0.00 0.00 0.00 0.00 0.00 0.00 0.00 0.00 0.00 0.00 0.00 0.00 0.00 0.00 0.00 0.00 0.00 0.00
0.00 0.00 0.00 0.00 0.00 0.00 0.00 0.00 0.00 0.00 0.00 0.00 0.00 0.00 0.00 0.00 0.00 0.00 0.00 0.00 0.00 0.00 0.00 0.00 0.00 0.00 0.00 0.00 0.00 0.00 0.00 0.00 0.00 0.00 0.00 0.00 0.00 0.00
0.00 0.00 0.00 0.00 0.00 0.00 0.00 0.00 0.00 0.00 0.00 0.00 0.00 0.00 0.00 0.00 0.00 0.00 0.00 0.00 0.00 0.00 0.00 0.00 0.00 0.00 0.00 0.00 0.00 0.00 0.00 0.00 0.00 0.00 0.00 0.00 0.00 0.00
0.00 0.00 0.00 0.00 0.00 0.00 0.00 0.00 0.00 0.00 0.00 0.00 0.00 0.00 0.00 0.00 0.00 0.00 0.00 0.00 0.00 0.00 0.00 0.00 0.00 0.00 0.00 0.00 0.00 0.00 0.00 0.00 0.00 0.00 0.00 0.00 0.00 0.00
0.00 0.00 0.00 0.00 0.00 0.00 0.00 0.00 0.00 0.00 0.00 0.00 0.00 0.00 0.00 0.00 0.00 0.00 0.00 0.00 0.00 0.00 0.00 0.00 0.00 0.00 0.00 0.00 0.00 0.00 0.00 0.00 0.00 0.00 0.00 0.00 0.00 0.00
0.00 0.00 0.00 0.00 0.00 0.00 0.00 0.00 0.00 0.00 0.00 0.00 0.00 0.00 0.00 0.00 0.00 0.00 0.00 0.00 0.00 0.00 0.00 0.00 0.00 0.00 0.00 0.00 0.00 0.00 0.00 0.00 0.00 0.00 0.00 0.00 0.00 0.00
0.00 0.00 0.00 0.00 0.00 0.00 0.00 0.00 0.00 0.00 0.00 0.00 0.00 0.00 0.00 0.00 0.00 0.00 0.00 0.00 0.00 0.00 0.00 0.00 0.00 0.00 0.00 0.00 0.00 0.00 0.00 0.00 0.00 0.00 0.00 0.00 0.00 0.00
0.00 0.00 0.00 0.00 0.00 0.00 0.00 0.00 0.00 0.00 0.00 0.00 0.00 0.00 0.00 0.00 0.00 0.00 0.00 0.00 0.00 0.00 0.00 0.00 0.00 0.00 0.00 0.00 0.00 0.00 0.00 0.00 0.00 0.00 0.00 0.00 0.00 0.00
0.00 0.00 0.00 0.00 0.00 0.00 0.00 0.00 0.00 0.01 0.01 0.00 0.00 0.00 0.00 0.00 0.00 0.00 0.00 0.00 0.00 0.00 0.00 0.00 0.00 0.00 0.00 0.00 0.00 0.00 0.00 0.00 0.00 0.00 0.00 0.00 0.00 0.00
0.00 0.00 0.00 0.00 0.00 0.00 0.00 0.00 0.01 0.00 0.02 0.02 0.01 0.00 0.00 0.00 0.00 0.00 0.00 0.00 0.00 0.00 0.00 0.00 0.00 0.00 0.00 0.00 0.00 0.00 0.00 0.00 0.00 0.00 0.00 0.00 0.00 0.00
0.00 0.00 0.00 0.00 0.00 0.00 0.00 0.00 0.00 0.00 0.02 0.03 0.02 0.01 0.00 0.00 0.00 0.00 0.00 0.00 0.00 0.00 0.00 0.00 0.00 0.00 0.00 0.00 0.00 0.00 0.00 0.00 0.01 0.00 0.00 0.01 0.00 0.00
0.00 0.00 0.01 0.00 0.00 0.00 0.00 0.00 0.00 0.00 0.00 0.01 0.01 0.01 0.00 0.00 0.00 0.00 0.00 0.00 0.00 0.00 0.00 0.00 0.00 0.00 0.00 0.00 0.00 0.00 0.00 0.00 0.00 0.01 0.02 0.00 0.00 0.00
0.00 0.00 0.00 0.00 0.00 0.00 0.00 0.00 0.00 0.00 0.00 0.01 0.01 0.01 0.01 0.00 0.00 0.00 0.00 0.00 0.00 0.00 0.00 0.00 0.00 0.00 0.00 0.00 0.00 0.00 0.00 0.00 0.01 0.02 0.01 0.01 0.01 0.01
0.00 0.00 0.00 0.00 0.00 0.00 0.00 0.01 0.00 0.00 0.01 0.01 0.02 0.02 0.02 0.01 0.01 0.00 0.00 0.00 0.00 0.00 0.00 0.00 0.00 0.00 0.00 0.00 0.00 0.00 0.00 0.00 0.01 0.02 0.01 0.01 0.01 0.01
0.00 0.00 0.00 0.00 0.01 0.01 0.02 0.02 0.01 0.01 0.01 0.01 0.02 0.02 0.02 0.01 0.01 0.00 0.00 0.00 0.00 0.00 0.00 0.00 0.00 0.00 0.00 0.00 0.00 0.00 0.00 0.01 0.01 0.00 0.01 0.01 0.03 0.01
0.00 0.01 0.02 0.02 0.01 0.02 0.03 0.03 0.01 0.00 0.00 0.01 0.02 0.02 0.02 0.02 0.01 0.00 0.00 0.00 0.00 0.00 0.00 0.00 0.00 0.00 0.00 0.00 0.00 0.00 0.01 0.01 0.00 0.00 0.01 0.03 0.03 0.01
0.00 0.00 0.01 0.01 0.01 0.02 0.03 0.02 0.01 0.01 0.00 0.00 0.01 0.01 0.02 0.02 0.01 0.01 0.01 0.00 0.00 0.00 0.00 0.00 0.00 0.00 0.00 0.01 0.01 0.00 0.00 0.00 0.00 0.00 0.01 0.01 0.03 0.01
0.00 0.00 0.00 0.00 0.00 0.00 0.01 0.02 0.02 0.02 0.02 0.01 0.01 0.02 0.02 0.02 0.02 0.01 0.01 0.01 0.00 0.00 0.00 0.00 0.00 0.00 0.00 0.00 0.00 0.00 0.00 0.00 0.00 0.00 0.00 0.00 0.01 0.00
0.00 0.00 0.00 0.00 0.00 0.00 0.00 0.01 0.01 0.02 0.02 0.01 0.01 0.01 0.02 0.01 0.02 0.01 0.00 0.00 0.00 0.00 0.00 0.00 0.00 0.00 0.00 0.00 0.00 0.01 0.01 0.00 0.00 0.00 0.00 0.00 0.01 0.01
0.00 0.00 0.00 0.00 0.00 0.00 0.00 0.00 0.00 0.01 0.01 0.01 0.02 0.02 0.01 0.01 0.02 0.01 0.01 0.01 0.00 0.00 0.00 0.00 0.00 0.00 0.00 0.00 0.01 0.02 0.03 0.01 0.00 0.00 0.00 0.00 0.00 0.00
0.00 0.00 0.00 0.00 0.00 0.00 0.00 0.00 0.00 0.00 0.01 0.01 0.02 0.02 0.02 0.01 0.02 0.02 0.01 0.00 0.00 0.00 0.00 0.00 0.00 0.00 0.00 0.00 0.00 0.01 0.01 0.01 0.02 0.01 0.00 0.00 0.00 0.00
MSLP
1023.67 1023.82 1024.19 1023.98 1023.78 1023.50 1023.53 1023.54 1023.23 1022.75 1022.39 1022.13 1021.98 1022.04 1022.30 1022.64 1023.12 1023.53 1023.80 1024.10 1024.54 1024.81 1024.85 1024.93 1024.95 1024.89 1024.75 1024.48 1024.15 1023.80 1023.36 1022.94 1022.49 1022.12 1021.82 1021.49 1021.10 1020.75
1023.75 1024.32 1024.21 1023.70 1023.36 1023.32 1023.30 1023.27 1023.12 1022.90 1022.29 1022.25 1022.14 1022.18 1022.17 1022.18 1022.50 1023.03 1023.39 1023.70 1023.81 1023.82 1023.89 1024.03 1024.18 1024.18 1024.09 1023.84 1023.58 1023.26 1022.85 1022.41 1022.07 1021.82 1021.46 1021.03 1020.65 1020.32
1023.90 1024.12 1023.86 1023.49 1023.18 1023.05 1022.98 1022.89 1022.73 1022.62 1022.13 1021.75 1021.60 1021.50 1021.54 1021.76 1021.95 1022.37 1022.74 1022.92 1022.95 1022.95 1023.04 1023.24 1023.33 1023.31 1023.26 1023.13 1022.87 1022.54 1022.22 1021.84 1021.54 1021.23 1020.93 1020.54 1020.11 1019.82
1023.92 1023.80 1023.46 1023.00 1022.79 1022.66 1022.66 1022.54 1022.29 1022.12 1022.00 1021.48 1021.36 1021.29 1021.31 1021.41 1021.54 1021.79 1022.18 1022.32 1022.25 1022.17 1022.27 1022.31 1022.25 1022.24 1022.24 1022.04 1021.82 1021.56 1021.34 1021.11 1020.90 1020.67 1020.41 1020.07 1019.66 1019.26
1023.87 1023.44 1023.07 1022.66 1022.24 1022.24 1022.13 1021.89 1021.52 1021.41 1021.36 1021.12 1020.75 1020.89 1020.83 1020.91 1020.95 1021.14 1021.39 1021.42 1021.61 1021.33 1021.18 1021.12 1021.17 1021.21 1021.01 1020.81 1020.67 1020.48 1020.26 1020.09 1019.95 1019.82 1019.63 1019.37 1019.10 1018.83
1023.36 1023.04 1022.48 1022.13 1021.87 1021.59 1021.20 1020.91 1020.77 1020.71 1020.64 1020.54 1020.41 1020.34 1020.22 1020.18 1020.40 1020.52 1020.49 1020.51 1020.48 1020.65 1020.48 1020.45 1020.19 1019.91 1019.70 1019.52 1019.35 1019.21 1019.14 1018.97 1019.02 1018.86 1018.67 1018.48 1018.28 1018.13
1022.95 1022.47 1021.70 1021.25 1021.12 1021.04 1020.91 1020.52 1020.21 1020.13 1019.96 1019.78 1019.66 1019.64 1019.50 1019.55 1019.64 1019.75 1019.86 1020.02 1020.18 1020.28 1019.90 1019.49 1019.28 1019.12 1018.72 1018.28 1017.82 1017.65 1018.08 1018.27 1018.24 1018.01 1017.77 1017.51 1017.29 1017.09
1022.33 1021.61 1020.84 1020.52 1020.30 1020.22 1020.17 1020.23 1020.46 1020.31 1019.80 1019.49 1019.20 1019.04 1018.87 1019.03 1019.25 1019.49 1019.69 1019.74 1019.63 1019.84 1019.35 1019.08 1019.18 1018.48 1017.97 1017.55 1017.25 1017.31 1017.39 1017.43 1017.38 1017.25 1017.07 1016.73 1016.41 1016.21
1021.34 1020.70 1020.28 1019.83 1019.63 1019.36 1019.09 1019.12 1019.20 1019.35 1019.54 1019.49 1019.33 1018.85 1018.71 1018.77 1019.00 1019.27 1019.42 1019.55 1019.37 1019.29 1019.42 1018.65 1018.43 1017.75 1017.35 1016.89 1016.85 1016.83 1016.71 1016.62 1016.56 1016.49 1016.27 1015.92 1015.65 1015.46
1020.48 1020.06 1019.69 1019.40 1019.23 1019.06 1018.72 1018.30 1018.05 1017.98 1018.21 1018.66 1018.71 1018.57 1018.60 1018.54 1018.52 1018.83 1019.20 1019.45 1019.40 1019.11 1018.76 1017.88 1017.68 1017.25 1016.95 1016.84 1016.63 1016.22 1015.88 1015.87 1015.87 1015.66 1015.40 1015.03 1014.60 1014.31
1020.05 1019.60 1019.29 1019.02 1018.83 1018.79 1018.69 1018.18 1017.46 1016.90 1016.86 1017.24 1017.46 1017.82 1018.51 1018.94 1019.12 1018.97 1019.16 1019.29 1018.72 1018.31 1017.92 1017.47 1017.17 1016.83 1016.65 1016.39 1015.97 1015.75 1015.88 1015.69 1015.10 1014.82 1014.45 1014.04 1013.65 1013.19
1019.92 1019.38 1019.07 1018.79 1018.50 1018.28 1018.11 1017.84 1017.34 1016.69 1016.46 1016.39 1016.95 1017.27 1017.74 1018.25 1018.84 1019.06 1019.05 1018.90 1018.42 1017.77 1017.35 1017.24 1017.01 1017.03 1016.29 1016.01 1015.58 1015.58 1015.02 1014.72 1014.43 1014.03 1013.44 1012.98 1012.34 1011.98
1020.47 1019.87 1019.38 1018.95 1018.56 1018.42 1018.27 1017.62 1016.81 1016.64 1016.26 1016.21 1016.25 1016.43 1016.71 1016.79 1017.14 1017.68 1018.05 1018.17 1017.70 1017.09 1016.77 1017.03 1017.02 1016.91 1016.61 1015.74 1015.45 1015.42 1015.10 1014.38 1013.85 1013.21 1012.50 1012.16 1011.77 1011.56
1020.66 1019.96 1019.24 1018.72 1018.46 1017.96 1017.56 1017.08 1016.77 1016.41 1016.06 1015.87 1015.84 1015.71 1015.92 1015.97 1016.13 1016.13 1016.59 1016.99 1016.64 1016.37 1016.38 1016.65 1016.70 1016.76 1016.38 1015.70 1015.16 1014.87 1014.44 1013.76 1013.26 1012.75 1012.25 1011.71 1011.20 1010.78
1020.79 1020.08 1019.35 1018.42 1017.61 1016.95 1016.45 1016.01 1015.88 1015.61 1015.23 1015.01 1014.83 1014.77 1014.76 1014.90 1015.08 1015.73 1016.42 1015.83 1015.64 1015.83 1016.03 1016.16 1016.24 1016.24 1016.03 1015.59 1015.05 1014.54 1013.79 1013.35 1012.88 1012.43 1011.99 1011.52 1010.90 1010.29
1020.52 1019.68 1018.78 1017.87 1017.01 1016.24 1015.44 1014.84 1014.73 1014.48 1014.34 1014.23 1014.16 1013.98 1014.03 1014.52 1014.83 1015.34 1015.62 1015.52 1015.43 1015.46 1015.39 1015.34 1015.50 1015.58 1015.41 1015.24 1014.91 1014.11 1013.71 1013.21 1012.68 1012.33 1011.90 1011.20 1010.50 1010.27
1020.67 1019.31 1017.76 1016.62 1015.81 1015.09 1014.32 1013.69 1013.35 1013.47 1013.52 1013.55 1013.51 1013.40 1013.45 1013.74 1014.04 1014.49 1014.93 1014.98 1014.90 1014.79 1014.71 1014.63 1014.55 1014.65 1014.64 1014.54 1014.08 1013.73 1013.33 1012.87 1012.52 1012.30 1011.78 1010.98 1010.42 1010.51
1019.94 1018.74 1018.03 1017.26 1016.49 1015.66 1014.72 1013.90 1012.64 1012.48 1012.84 1013.00 1012.93 1012.76 1012.80 1013.04 1013.36 1013.79 1014.19 1014.37 1014.33 1014.22 1014.05 1013.86 1013.92 1013.95 1013.95 1013.63 1013.39 1013.14 1013.02 1012.88 1012.76 1012.30 1011.57 1010.89 1010.34 1010.62
1019.68 1018.92 1018.57 1018.03 1017.33 1016.45 1015.54 1014.47 1014.31 1012.36 1012.52 1012.50 1012.45 1012.37 1012.44 1012.53 1012.88 1013.10 1013.38 1013.69 1013.68 1013.63 1013.48 1013.34 1013.49 1013.64 1013.41 1013.14 1013.02 1013.29 1013.27 1013.04 1012.78 1012.12 1011.48 1010.98 1010.49 1010.46
1019.88 1019.39 1018.96 1018.65 1018.05 1017.25 1016.46 1015.53 1014.39 1013.26 1011.59 1011.82 1011.93 1011.92 1011.99 1012.11 1012.19 1012.33 1012.65 1012.95 1013.05 1013.08 1013.00 1012.86 1012.98 1012.98 1012.91 1013.12 1013.22 1013.09 1013.18 1013.14 1012.85 1012.35 1011.63 1010.96 1010.29 1010.18
1020.17 1019.77 1019.36 1018.97 1018.63 1017.99 1017.18 1016.32 1015.50 1014.12 1012.81 1011.56 1011.65 1011.60 1011.61 1011.71 1011.66 1011.77 1011.92 1012.36 1012.49 1012.52 1012.43 1012.40 1012.60 1013.09 1013.14 1013.30 1013.10 1012.51 1012.11 1012.74 1012.87 1012.62 1012.11 1011.37 1010.75 1010.36
1020.94 1020.55 1020.00 1019.58 1019.26 1018.46 1017.61 1016.82 1015.90 1014.95 1013.80 1012.76 1011.62 1011.25 1011.25 1011.31 1011.21 1011.15 1011.41 1011.78 1011.93 1012.07 1012.12 1012.11 1012.24 1012.56 1012.64 1012.50 1012.37 1011.96 1011.76 1012.27 1012.52 1012.63 1012.48 1012.27 1012.03 1011.49
1021.22 1021.06 1020.69 1020.06 1019.56 1018.85 1018.01 1017.35 1016.62 1015.82 1015.01 1013.79 1012.74 1011.84 1011.08 1011.03 1010.85 1010.77 1010.92 1011.32 1011.49 1011.68 1011.75 1011.84 1011.96 1012.02 1012.16 1012.02 1012.16 1011.97 1011.68 1011.69 1011.61 1012.02 1012.09 1012.07 1012.01 1011.91
Thickness
5491 5483 5471 5466 5460 5456 5448 5439 5432 5427 5424 5416 5405 5393 5382 5372 5361 5350 5338 5324 5312 5300 5291 5283 5274 5266 5258 5253 5250 5247 5246 5246 5247 5248 5250 5255 5260 5267
5478 5464 5458 5455 5450 5443 5436 5428 5420 5412 5409 5398 5389 5377 5368 5358 5344 5333 5319 5308 5298 5291 5284 5275 5266 5256 5248 5244 5241 5238 5237 5237 5236 5236 5238 5242 5248 5252
5462 5453 5449 5445 5439 5431 5424 5416 5408 5398 5393 5391 5377 5367 5356 5342 5331 5319 5307 5296 5287 5280 5274 5266 5258 5250 5243 5238 5234 5232 5229 5228 5228 5228 5229 5233 5237 5241
5448 5443 5439 5436 5430 5421 5412 5404 5395 5387 5378 5374 5365 5351 5338 5326 5316 5304 5295 5286 5279 5273 5266 5260 5253 5247 5238 5234 5231 5227 5224 5222 5221 5221 5222 5224 5229 5234
5439 5434 5429 5423 5419 5410 5401 5394 5387 5377 5365 5355 5350 5336 5325 5314 5305 5294 5286 5280 5272 5267 5262 5256 5249 5244 5237 5233 5228 5225 5222 5219 5217 5216 5217 5219 5222 5226
5429 5423 5419 5413 5406 5399 5392 5384 5374 5362 5350 5340 5330 5321 5312 5304 5292 5285 5281 5273 5268 5258 5252 5245 5242 5240 5236 5234 5230 5224 5220 5217 5214 5213 5214 5216 5218 5221
5417 5413 5412 5406 5398 5387 5377 5369 5357 5345 5335 5324 5316 5308 5302 5292 5284 5277 5269 5264 5257 5246 5243 5240 5236 5233 5232 5231 5230 5228 5220 5213 5211 5211 5213 5214 5217 5220
5408 5406 5402 5395 5388 5378 5367 5352 5337 5328 5321 5311 5305 5296 5291 5283 5274 5266 5257 5251 5246 5236 5234 5234 5227 5229 5228 5227 5225 5221 5216 5212 5210 5209 5210 5213 5216 5219
5401 5397 5391 5383 5372 5363 5353 5346 5334 5318 5304 5298 5289 5287 5276 5272 5261 5253 5246 5239 5235 5230 5222 5227 5223 5225 5224 5224 5218 5215 5213 5210 5208 5207 5208 5211 5214 5217
5393 5386 5378 5369 5358 5345 5336 5328 5318 5310 5299 5288 5278 5275 5265 5258 5251 5242 5235 5227 5223 5220 5217 5222 5221 5221 5218 5216 5212 5211 5211 5208 5205 5205 5206 5210 5214 5218
5382 5373 5363 5353 5342 5328 5314 5308 5306 5300 5287 5271 5268 5264 5257 5246 5235 5227 5221 5215 5217 5216 5214 5216 5216 5216 5213 5211 5208 5206 5203 5202 5203 5204 5206 5209 5212 5217
5366 5357 5346 5335 5325 5315 5303 5289 5283 5285 5276 5266 5251 5246 5241 5232 5224 5216 5211 5207 5207 5211 5210 5209 5208 5204 5208 5205 5204 5199 5200 5201 5201 5203 5206 5208 5212 5216
5341 5335 5326 5314 5302 5291 5279 5274 5269 5262 5259 5252 5245 5236 5232 5228 5221 5214 5208 5203 5204 5208 5207 5202 5200 5198 5195 5199 5198 5193 5192 5196 5198 5202 5205 5206 5208 5209
5317 5312 5305 5296 5284 5274 5264 5256 5248 5241 5238 5235 5229 5228 5223 5219 5214 5212 5207 5202 5203 5205 5202 5197 5195 5191 5190 5191 5193 5191 5190 5193 5196 5198 5200 5203 5205 5209
5295 5288 5280 5275 5269 5262 5254 5246 5237 5231 5226 5222 5221 5222 5219 5216 5211 5203 5196 5198 5200 5199 5196 5193 5191 5188 5185 5185 5187 5186 5191 5192 5193 5195 5197 5201 5206 5211
5280 5274 5265 5257 5251 5245 5242 5238 5230 5224 5219 5216 5214 5215 5213 5206 5202 5196 5192 5193 5194 5195 5193 5192 5189 5186 5184 5181 5181 5184 5186 5188 5190 5192 5196 5202 5207 5209
5257 5255 5255 5251 5246 5241 5235 5231 5226 5219 5214 5211 5208 5208 5206 5202 5198 5193 5189 5189 5190 5191 5192 5192 5190 5186 5184 5181 5182 5183 5184 5186 5188 5191 5196 5203 5208 5206
5241 5240 5233 5226 5221 5218 5216 5214 5220 5216 5208 5205 5204 5204 5202 5199 5195 5190 5187 5186 5187 5189 5191 5191 5188 5186 5183 5183 5182 5183 5183 5183 5184 5189 5196 5203 5208 5204
5224 5219 5210 5204 5199 5197 5196 5198 5192 5205 5202 5199 5198 5198 5196 5195 5190 5188 5187 5185 5187 5188 5189 5189 5186 5182 5181 5181 5181 5177 5177 5179 5182 5189 5196 5201 5205 5205
5205 5198 5192 5184 5179 5176 5175 5177 5183 5187 5199 5196 5193 5192 5190 5189 5188 5187 5186 5184 5186 5186 5187 5188 5185 5184 5183 5178 5174 5176 5174 5175 5179 5185 5193 5199 5204 5205
5187 5180 5173 5167 5161 5157 5156 5158 5160 5168 5177 5187 5186 5185 5184 5184 5185 5184 5184 5182 5184 5185 5186 5186 5183 5177 5175 5172 5171 5177 5179 5174 5175 5181 5186 5194 5200 5205
5164 5157 5153 5147 5140 5139 5139 5141 5144 5150 5157 5164 5176 5178 5178 5179 5180 5182 5182 5181 5183 5183 5183 5183 5180 5177 5175 5175 5174 5178 5179 5175 5174 5176 5179 5183 5188 5194
5146 5137 5131 5127 5121 5120 5121 5123 5126 5131 5136 5146 5155 5164 5171 5173 5176 5178 5179 5179 5180 5181 5181 5180 5178 5176 5175 5175 5171 5173 5176 5176 5179 5178 5179 5181 5183 5186